Weather in Sedelnitsy

Russia / Ivanovo Oblast     57°08′36″N   40°32′56″E
temp.,
°C
wind,
m/s
gust,
m/s
humid.,
%
clouds,
%
prec.,
mm/h
press.,
hPa
HPBL,
m
12 may, wed
wed1200:00+10ese34810 0.0 102849
03:00+10ese22925 0.0 102811
06:00+12e24905 0.0 1028111
09:00+17ene467499 0.0 1028403
12:00+21ene57625 0.0 1026885
15:00+23e69550 0.0 10241653
18:00+21e6116384 0.1 1022649
21:00+14s238076 0.6 102323
13 may, thu
thu1300:00+14e238282 0.1 102363
03:00+12ese35905 0.1 102266
06:00+13se37905 0.0 1022215
09:00+18se587447 0.0 1021994
12:00+21se685627 0.0 10191903
15:00+18sse61085100 4.9 10151089
18:00+16se61285100 7.7 1016818
21:00+14ese4797100 8.3 1016254
14 may, fri
fri1400:00+13s369831 0.6 1016164
03:00+10ssw3892100 0.6 1017162
06:00+11ssw3788100 0.0 1018209
09:00+13s468296 0.0 1019390
12:00+18s476560 0.0 10181195
15:00+21s5662100 0.2 10171452
18:00+19sse3679100 3.6 1016283
21:00+14ene2295100 8.3 101535
15 may, sat
sat1500:00+15ese4996100 5.0 1013184
03:00+14sse4109797 5.1 1012218
06:00+16s4119466 0.0 1013282
09:00+18sse2386100 0.1 1011210
12:00+22sse4668100 0.0 1011935
15:00+20ssw3682100 2.6 1010246
18:00+19s410846 1.9 1010491
21:00+16s41393100 2.1 1009369
16 may, sun
sun1600:00+15s411950 0.1 1009238
03:00+13s410962 0.1 1010226
06:00+14ssw411931 0.0 1010417
09:00+18ssw697587 0.0 1011774
12:00+20sw796292 0.0 10121277
15:00+21sw69570 0.0 10121786
18:00+19wsw486720 0.0 1012554
21:00+14sw22781 0.1 101321